Weather History for Campo, CA

Change the Weather History Date:

Saturday, June 7, 2014

  Actual Average Record
Temperature  
Mean Temperature 62 °F 64 °F  
Max Temperature 85 °F 85 °F 102 °F (1985)
Min Temperature 39 °F 44 °F 31 °F (1980)
Degree Days  
Heating Degree Days 3 3  
Month to date heating degree days 5 22  
Since 1 June heating degree days 5 22  
Since 1 July heating degree days 2636 2949  
Cooling Degree Days 0 2  
Month to date cooling degree days 0 14  
Year to date cooling degree days 52 44  
Since 1 June cooling degree days 0 14  
Growing Degree Days 10 (Base 50)    
Moisture  
Dew Point 42 °F    
Average Humidity 51    
Maximum Humidity 89    
Minimum Humidity 12    
Precipitation  
Precipitation 0.00 in 0.01 in 0.01 in (1998)
Month to date precipitation 0.00 0.03  
Year to date precipitation 2.76 10.07  
Since 1 July precipitation 6.95 15.65  
Snow  
Snow 0.00 in - - ()
Month to date snowfall 0.0  
Year to date snowfall 0.0  
Since 1 July snowfall 0.0  
Snow Depth 0.00 in    
Sea Level Pressure  
Sea Level Pressure 29.75 in    
Wind  
Wind Speed 11 mph (SSE)    
Max Wind Speed 24 mph    
Max Gust Speed 30 mph    
T = Trace of Precipitation, MM = Missing Value Source: NWS Daily Summary

Daily Weather History Graph

Daily Weather History Graph

Search for Another Location

Airport:

Trip Planner

Search our weather history database for the weather conditions in past years. The results will help you decide how hot, cold, wet, or windy it might be!

Date:

Astronomy

Jun. 07, 2014 Rise Set
Actual Time 5:37 AM PDT 7:51 PM PDT
Civil Twilight 5:09 AM PDT 8:20 PM PDT
Nautical Twilight 4:34 AM PDT 8:54 PM PDT
Astronomical Twilight 3:57 AM PDT 9:32 PM PDT
Moon 2:30 PM PDT (6/7) 1:43 AM PDT (6/7)
Length of Visible Light 15h 10m
Length of Day
14h 13m
Waxing Gibbous, 69% of the Moon is Illuminated
Jun 7
Waxing Gibbous
Jun 12
Full
Jun 19
Last Quarter
Jun 27
New
Jul 5
First Quarter

Hourly Weather History & Observations

Time (PDT) Temp. Windchill Dew Point Humidity Pressure Visibility Wind Dir Wind Speed Gust Speed Precip Events Conditions
12:52 AM 48.0 °F - 42.1 °F 80% 29.77 in - NE 4.6 mph - N/A   Unknown
1:52 AM 46.0 °F 43.1 °F 42.1 °F 86% 29.76 in - NE 5.8 mph - N/A   Unknown
2:52 AM 45.0 °F 41.2 °F 41.0 °F 86% 29.75 in - ENE 6.9 mph - N/A   Unknown
3:52 AM 45.0 °F 42.6 °F 41.0 °F 86% 29.74 in - NNE 4.6 mph - N/A   Unknown
4:52 AM 42.8 °F 39.3 °F 39.2 °F 87% 29.82 in - ENE 5.8 mph - N/A   Unknown
5:52 AM 39.2 °F 35.9 °F 35.6 °F 87% 29.83 in - NE 4.6 mph - N/A   Unknown
6:52 AM 50.0 °F - 39.9 °F 68% 29.77 in - ENE 5.8 mph - N/A   Unknown
7:52 AM 63.0 °F - 43.0 °F 48% 29.76 in - Calm Calm - N/A   Unknown
8:52 AM 72.0 °F - 28.0 °F 20% 29.75 in - Variable 3.5 mph - N/A   Unknown
9:52 AM 75.9 °F - 19.9 °F 12% 29.74 in - South 12.7 mph - N/A   Unknown
10:52 AM 78.1 °F - 28.9 °F 17% 29.74 in - SSW 17.3 mph - N/A   Unknown
11:52 AM 80.1 °F - 34.0 °F 19% 29.74 in - SSW 18.4 mph - N/A   Unknown
12:52 PM 82.0 °F - 37.9 °F 21% 29.73 in - SSW 16.1 mph - N/A   Unknown
1:52 PM 82.9 °F - 41.0 °F 23% 29.71 in - SSW 21.9 mph 26.5 mph N/A   Unknown
2:52 PM 82.0 °F - 45.0 °F 27% 29.71 in - SSW 21.9 mph - N/A   Unknown
3:52 PM 82.0 °F - 48.0 °F 30% 29.70 in - SW 18.4 mph 24.2 mph N/A   Unknown
4:52 PM 79.0 °F - 51.1 °F 38% 29.71 in - SW 18.4 mph - N/A   Unknown
5:52 PM 75.9 °F - 51.1 °F 42% 29.72 in - SW 18.4 mph - N/A   Unknown
6:52 PM 72.0 °F - 51.1 °F 48% 29.73 in - SW 15.0 mph - N/A   Unknown
7:52 PM 66.0 °F - 51.1 °F 59% 29.73 in - South 6.9 mph - N/A   Unknown
8:52 PM 64.0 °F - 51.1 °F 63% 29.73 in - SW 3.5 mph - N/A   Unknown
9:52 PM 57.0 °F - 46.0 °F 67% 29.75 in - NNE 5.8 mph - N/A   Unknown
10:52 PM 57.0 °F - 46.9 °F 69% 29.75 in - NNE 4.6 mph - N/A   Unknown
11:52 PM 54.0 °F - 45.0 °F 72% 29.74 in - NE 5.8 mph - N/A   Unknown